Regional Weather Roundup
Issued by NWS

Home | Current Version | Previous Version | Graphics & Text | Print | Product List | Glossary On
Versions: 1 2 3 4 5 6 7 8 9 10 11 12 13 14 15 16 17 18 19 20 21 22 23 24 25 26 27 28 29 30 31 32 33 34 35 36 37 38 39 40 41 42 43 44 45 46 47 48 49
000
ASUS45 KBOU 230707
RWRCO

WEATHER ROUNDUP FOR COLORADO
NATIONAL WEATHER SERVICE DENVER/BOULDER CO
100 AM MDT WED JUL 23 2014

NOTE: "FAIR" INDICATES FEW OR NO CLOUDS BELOW 12000 FEET WITH NO
SIGNIFICANT WEATHER AND/OR OBSTRUCTIONS TO VISIBILITY.

COZ001>005-013-030-031-230800-
...NORTHWEST COLORADO...

CITY           SKY/WX    TMP DP  RH WIND       PRES   REMARKS
CRAIG          CLEAR     46  41  82 CALM      30.34S
HAYDEN         CLEAR     64  34  32 E9        30.37F
MEEKER         CLEAR     59  32  36 E6        30.35R
MOUNT WERNER   NOT AVBL
STEAMBOAT SPGS CLEAR     57  38  49 CALM      30.42R
WALDEN         CLEAR     54  37  54 SE6       30.54R
$$

COZ006>008-011-230800-
...WEST CENTRAL VALLEYS...

CITY           SKY/WX    TMP DP  RH WIND       PRES   REMARKS
GRAND JUNCTION CLEAR     71  24  17 E6        30.17R
MONTROSE       MOCLDY    73  36  25 SE7       30.30R
EAGLE          CLEAR     63  37  39 CALM      30.42S
RIFLE          CLEAR     66  28  24 S5        30.28R
DELTA          MOCLDY    78  30  17 NE6       30.25R
NUCLA          MOCLDY    81  27  13 SE3       30.35R
$$

COZ017>023-064>068-230800-
...SOUTHWEST COLORADO...

CITY           SKY/WX    TMP DP  RH WIND       PRES   REMARKS
DURANGO        LGT RAIN  62  58  86 W7        30.52R
CORTEZ         CLEAR     80  43  26 SE22G31   30.36R
PAGOSA SPRINGS CLOUDY    68  40  36 CALM      30.56S
TELLURIDE      MOCLDY    70  37  30 S14G22    30.62R
WOLF CREEK PAS NOT AVBL
$$

COZ009-010-012-014-032>034-037-058>063-230800-
...CENTRAL COLORADO...

CITY           SKY/WX    TMP DP  RH WIND       PRES   REMARKS
ASPEN          CLEAR     71  39  31 SE13      30.50R
BUENA VISTA    PTCLDY    58  50  73 CALM      30.63S
COPPER MTN     CLEAR     59  32  36 S25       30.88R
BERTHOUD PASS  FAIR      50  36  57 SE13      30.94S
COTTONWOOD PAS PTCLDY    63  36  36 SE18G24   30.76S
GUNNISON       CLEAR     70  39  32 E15G26    30.55R
KREMMLING      CLEAR     61  36  39 N5        30.49S
LEADVILLE      CLEAR     50  37  61 E6        30.73S
MONARCH PASS   MOCLDY    46  37  71 E21       31.00S
SALIDA         PTCLDY   N/A N/A N/A CALM      30.68R
SUNLIGHT       CLEAR     61  34  36 CALM      30.76R
WILKERSON PASS PTCLDY    54  34  47 SW10G17   30.85S
$$

COZ069>075-230800-
...SAN LUIS VALLEY/SANGRE DE CRISTO MOUNTAINS...

CITY           SKY/WX    TMP DP  RH WIND       PRES   REMARKS
ALAMOSA        CLEAR     60  45  57 CALM      30.52S
LA VETA PASS   CLEAR     59  43  55 S3        30.75S
SAGUACHE       PTCLDY    66  45  45 CALM      30.58R
$$

COZ035-036-038>040-230800-
...NORTHERN COLORADO FRONT RANGE...

CITY           SKY/WX    TMP DP  RH WIND       PRES   REMARKS
DENVER INTL AP PTCLDY    69  49  48 S9        30.32S
DMNS CITY PARK   N/A     73  47  39 S7        30.33R
AURORA         PTCLDY    69  50  50 SW9       30.35R
FRONT RANGE AP NOT AVBL
ERIE MUNI ARPT CLEAR     69  56  64 W5        30.30S
BOULDER MUN AP CLEAR     73  52  46 NE6       30.31S
CENTENNIAL     PTCLDY    69  43  38 S10       30.37R
BROOMFIELD     CLEAR     73  46  38 CALM      30.34S
FORT COLLINS   CLEAR     72  59  64 N8        30.33R
LONGMONT       CLEAR     77  58  51 N8        30.31S
$$

COZ041-046-047-076>085-087-088-230800-
...PIKES PEAK/PALMER DIVIDE AND SOUTHERN FOOTHILLS...

CITY           SKY/WX    TMP DP  RH WIND       PRES   REMARKS
COLO. SPRINGS  MOCLDY    72  51  47 CALM      30.42S
A. F. ACADEMY  PTCLDY    67  49  52 NW6       30.44S
ELLICOTT       PTCLDY    66  53  63 SE7       30.39F
FALCON         PTCLDY    65  51  60 W5        30.48S
FORT CARSON    MOCLDY    72  50  46 W3        30.39R
LIMON          CLEAR     67  56  67 S5        30.36R
MONUMENT HILL  PTCLDY    63  43  48 SW7       30.47S
TRINIDAD       CLEAR     73  55  53 SW13      30.37S
$$

COZ042>045-048>051-090-091-230800-
...NORTHEAST COLORADO...

CITY           SKY/WX    TMP DP  RH WIND       PRES   REMARKS
GREELEY ARPT   CLEAR     70  57  64 E8        30.30S
AKRON          PTCLDY    69  61  75 E13       30.33R
BURLINGTON     CLEAR     69  65  86 NE6       30.30R
WRAY             N/A     73  62  68 E12G17    30.30S
STERLING       CLEAR     75  64  69 SE20G28   30.27F
HOLYOKE        CLEAR     70  61  73 E7        30.31F
FORT MORGAN    CLEAR     72  62  70 E14       30.31S
$$

COZ086-089-092>099-230800-
...SOUTHEAST COLORADO...

CITY           SKY/WX    TMP DP  RH WIND       PRES   REMARKS
PUEBLO         PTCLDY    73  53  49 SW7       30.29R
LA JUNTA       PTCLDY    75  60  59 W5        30.24R
LAMAR          CLEAR     74  62  66 CALM      30.21R
SPRINGFIELD      N/A     69  62  78 SW7       30.28R
$$


USA.gov is the U.S. government's official web portal to all federal, state and local government web resources and services.